When you browse on this site, cookies collect data to enhance your experience and personalize the content and advertising you see.
Visit our Privacy Policy to learn more. By continuing to use the site, you agree to this use of cookies and data.

Previsão horária em Diveevka

Hoje, 3 Julho, Sexta-feira

Tempo Temperatura Precipitação Vento Pressão Humidade
00:00 +18°C° 0 mm 1 m/s 746 mmHg 92%
01:00 +18°C° 0 mm 1 m/s 747 mmHg 93%
02:00 +18°C° 0 mm 1 m/s 747 mmHg 94%
03:00 +18°C° 0 mm 1 m/s 747 mmHg 94%
04:00 +18°C° 0 mm 2 m/s 747 mmHg 91%
05:00 +19°C° 0 mm 2 m/s 747 mmHg 89%
06:00 +19°C° 0 mm 3 m/s 747 mmHg 86%
07:00 +21°C° 0.1 mm 3 m/s 747 mmHg 81%
08:00 +24°C° 0.1 mm 3 m/s 747 mmHg 77%
09:00 +26°C° 0 mm 4 m/s 748 mmHg 69%
10:00 +26°C° 0.3 mm 4 m/s 748 mmHg 66%
11:00 +27°C° 0.3 mm 4 m/s 747 mmHg 64%
12:00 +28°C° 0.3 mm 5 m/s 747 mmHg 61%
13:00 +29°C° 0.1 mm 5 m/s 747 mmHg 60%
14:00 +29°C° 0.1 mm 5 m/s 747 mmHg 60%
15:00 +29°C° 0.1 mm 5 m/s 747 mmHg 59%
16:00 +28°C° 0.1 mm 4 m/s 747 mmHg 63%
17:00 +27°C° 0.1 mm 4 m/s 747 mmHg 68%
18:00 +27°C° 0.1 mm 3 m/s 747 mmHg 72%
19:00 +25°C° 0.1 mm 3 m/s 747 mmHg 79%
20:00 +24°C° 0.1 mm 2 m/s 748 mmHg 85%
21:00 +21°C° 0.1 mm 2 m/s 748 mmHg 91%
22:00 +21°C° 0 mm 2 m/s 748 mmHg 92%
23:00 +21°C° 0 mm 2 m/s 748 mmHg 93%

Amanhã, 4 Julho, Sábado

Tempo Temperatura Precipitação Vento Pressão Humidade
00:00 +20°C° 0 mm 2 m/s 748 mmHg 94%
01:00 +20°C° 0 mm 2 m/s 748 mmHg 94%
02:00 +20°C° 0 mm 2 m/s 748 mmHg 94%
03:00 +19°C° 0 mm 2 m/s 748 mmHg 95%
04:00 +20°C° 0 mm 2 m/s 748 mmHg 92%
05:00 +20°C° 0 mm 3 m/s 748 mmHg 90%
06:00 +21°C° 0 mm 3 m/s 748 mmHg 87%
07:00 +24°C° 0 mm 3 m/s 748 mmHg 80%
08:00 +25°C° 0 mm 3 m/s 748 mmHg 74%
09:00 +27°C° 0 mm 3 m/s 748 mmHg 67%
10:00 +28°C° 0 mm 3 m/s 747 mmHg 62%
11:00 +29°C° 0 mm 3 m/s 747 mmHg 58%
12:00 +30°C° 0 mm 3 m/s 747 mmHg 53%
13:00 +30°C° 0 mm 4 m/s 747 mmHg 53%
14:00 +30°C° 0 mm 4 m/s 747 mmHg 53%
15:00 +32°C° 0 mm 4 m/s 746 mmHg 53%
16:00 +30°C° 0.5 mm 3 m/s 746 mmHg 60%
17:00 +29°C° 0.5 mm 2 m/s 746 mmHg 68%
18:00 +28°C° 0.5 mm 2 m/s 746 mmHg 76%
19:00 +26°C° 0.2 mm 2 m/s 746 mmHg 80%
20:00 +25°C° 0.2 mm 2 m/s 746 mmHg 85%
21:00 +23°C° 0.2 mm 2 m/s 746 mmHg 90%
22:00 +23°C° 0 mm 2 m/s 746 mmHg 91%
23:00 +21°C° 0 mm 2 m/s 745 mmHg 92%

Depois de amanhã, 5 Julho, Domingo

Tempo Temperatura Precipitação Vento Pressão Humidade
00:00 +22°C° 0 mm 1 m/s 745 mmHg 93%
01:00 +22°C° 0.1 mm 1 m/s 745 mmHg 94%
02:00 +21°C° 0.1 mm 1 m/s 745 mmHg 95%
03:00 +20°C° 0.1 mm 2 m/s 745 mmHg 96%
04:00 +20°C° 0 mm 2 m/s 745 mmHg 95%
05:00 +21°C° 0 mm 2 m/s 745 mmHg 94%
06:00 +21°C° 0 mm 2 m/s 745 mmHg 93%
07:00 +24°C° 0.1 mm 2 m/s 745 mmHg 87%
08:00 +25°C° 0.1 mm 2 m/s 745 mmHg 82%
09:00 +26°C° 0.1 mm 3 m/s 745 mmHg 76%
10:00 +27°C° 0 mm 3 m/s 745 mmHg 71%
11:00 +28°C° 0 mm 3 m/s 745 mmHg 65%
12:00 +29°C° 0 mm 4 m/s 745 mmHg 59%
13:00 +29°C° 0.1 mm 4 m/s 745 mmHg 59%
14:00 +29°C° 0.1 mm 4 m/s 745 mmHg 60%
15:00 +29°C° 0.1 mm 4 m/s 745 mmHg 60%
16:00 +28°C° 0.5 mm 4 m/s 745 mmHg 66%
17:00 +27°C° 0.5 mm 3 m/s 745 mmHg 72%
18:00 +26°C° 0.5 mm 2 m/s 745 mmHg 79%
19:00 +25°C° 0.1 mm 2 m/s 745 mmHg 80%
20:00 +24°C° 0.1 mm 1 m/s 745 mmHg 82%
21:00 +22°C° 0.1 mm 1 m/s 745 mmHg 83%
22:00 +22°C° 0.2 mm 1 m/s 745 mmHg 85%
23:00 +22°C° 0.2 mm 1 m/s 745 mmHg 87%

6 Julho, Segunda-feira

Tempo Temperatura Precipitação Vento Pressão Humidade
00:00 +21°C° 0.2 mm 1 m/s 744 mmHg 88%
01:00 +21°C° 0.1 mm 1 m/s 744 mmHg 91%
02:00 +20°C° 0.1 mm 1 m/s 744 mmHg 93%
03:00 +20°C° 0.1 mm 1 m/s 744 mmHg 96%
04:00 +20°C° 0 mm 1 m/s 744 mmHg 94%
05:00 +21°C° 0 mm 1 m/s 745 mmHg 93%
06:00 +21°C° 0 mm 1 m/s 745 mmHg 92%
07:00 +23°C° 0 mm 1 m/s 745 mmHg 84%
08:00 +25°C° 0 mm 1 m/s 745 mmHg 76%
09:00 +26°C° 0 mm 1 m/s 745 mmHg 68%
10:00 +28°C° 0 mm 1 m/s 745 mmHg 63%
11:00 +29°C° 0 mm 1 m/s 745 mmHg 58%
12:00 +30°C° 0 mm 1 m/s 745 mmHg 52%
13:00 +30°C° 0.1 mm 2 m/s 745 mmHg 53%
14:00 +30°C° 0.1 mm 2 m/s 745 mmHg 54%
15:00 +30°C° 0.1 mm 2 m/s 744 mmHg 55%
16:00 +30°C° 0.1 mm 2 m/s 744 mmHg 59%
17:00 +30°C° 0.1 mm 2 m/s 744 mmHg 62%
18:00 +29°C° 0.1 mm 1 m/s 744 mmHg 66%
19:00 +27°C° 0.1 mm 1 m/s 744 mmHg 72%
20:00 +26°C° 0.1 mm 1 m/s 744 mmHg 78%
21:00 +24°C° 0.1 mm 1 m/s 745 mmHg 84%
22:00 +23°C° 0 mm 1 m/s 745 mmHg 86%
23:00 +23°C° 0 mm 1 m/s 744 mmHg 88%

7 Julho, Terça-feira

Tempo Temperatura Precipitação Vento Pressão Humidade
00:00 +22°C° 0 mm 1 m/s 744 mmHg 90%
01:00 +22°C° 0 mm 1 m/s 744 mmHg 91%
02:00 +21°C° 0 mm 1 m/s 745 mmHg 92%
03:00 +21°C° 0 mm 1 m/s 745 mmHg 93%
04:00 +22°C° 0 mm 1 m/s 745 mmHg 91%
05:00 +22°C° 0 mm 1 m/s 745 mmHg 88%
06:00 +23°C° 0 mm 1 m/s 745 mmHg 86%
07:00 +25°C° 0 mm 1 m/s 745 mmHg 79%
08:00 +27°C° 0 mm 2 m/s 745 mmHg 72%
09:00 +29°C° 0 mm 2 m/s 745 mmHg 65%
10:00 +30°C° 0 mm 2 m/s 745 mmHg 59%
11:00 +31°C° 0 mm 2 m/s 745 mmHg 54%
12:00 +33°C° 0 mm 3 m/s 745 mmHg 48%
13:00 +34°C° 0 mm 3 m/s 744 mmHg 46%
14:00 +34°C° 0 mm 3 m/s 744 mmHg 45%
15:00 +35°C° 0 mm 3 m/s 744 mmHg 43%
16:00 +34°C° 0 mm 3 m/s 744 mmHg 49%
17:00 +33°C° 0 mm 3 m/s 744 mmHg 54%
18:00 +31°C° 0 mm 3 m/s 744 mmHg 60%
19:00 +30°C° 0 mm 3 m/s 744 mmHg 67%
20:00 +28°C° 0 mm 3 m/s 744 mmHg 74%
21:00 +26°C° 0 mm 2 m/s 744 mmHg 82%
22:00 +25°C° 0 mm 2 m/s 744 mmHg 84%
23:00 +24°C° 0 mm 2 m/s 744 mmHg 85%

8 Julho, Quarta-feira

Tempo Temperatura Precipitação Vento Pressão Humidade
00:00 +24°C° 0 mm 2 m/s 743 mmHg 87%
01:00 +24°C° 0 mm 2 m/s 744 mmHg 87%
02:00 +23°C° 0 mm 2 m/s 744 mmHg 87%
03:00 +23°C° 0 mm 2 m/s 744 mmHg 86%
04:00 +24°C° 0 mm 2 m/s 744 mmHg 79%
05:00 +25°C° 0 mm 3 m/s 744 mmHg 72%
06:00 +26°C° 0 mm 3 m/s 744 mmHg 64%
07:00 +27°C° 0 mm 3 m/s 744 mmHg 61%
08:00 +28°C° 0 mm 4 m/s 744 mmHg 57%
09:00 +30°C° 0 mm 4 m/s 744 mmHg 54%
10:00 +30°C° 0 mm 4 m/s 744 mmHg 52%
11:00 +32°C° 0 mm 4 m/s 744 mmHg 50%
12:00 +32°C° 0 mm 5 m/s 744 mmHg 48%
13:00 +33°C° 0 mm 5 m/s 744 mmHg 47%
14:00 +34°C° 0 mm 5 m/s 744 mmHg 45%
15:00 +35°C° 0 mm 4 m/s 743 mmHg 44%
16:00 +35°C° 0 mm 5 m/s 743 mmHg 47%
17:00 +34°C° 0 mm 5 m/s 743 mmHg 51%
18:00 +33°C° 0 mm 5 m/s 743 mmHg 55%
19:00 +30°C° 0 mm 4 m/s 743 mmHg 63%
20:00 +28°C° 0 mm 3 m/s 743 mmHg 72%
21:00 +26°C° 0 mm 2 m/s 743 mmHg 80%
22:00 +25°C° 1.5 mm 2 m/s 743 mmHg 84%
23:00 +24°C° 1.5 mm 3 m/s 743 mmHg 88%
Mostrar mais